FW5404 Weather Reports


Display with metric or nautical units.
time (UTC)temp
F
wind
direction
speed
MPH
gust
MPH
rain 1hr
in
rain 24hr
in
rain mn
in
humidity
%
barometer
mb
20260506143005 61 85 5.0 7.0 0.00 0.00 0.00 57 1021.3
20260506142505 61 88 6.0 7.0 0.00 0.00 0.00 55 1021.3
20260506142006 61 91 5.0 7.0 0.00 0.00 0.00 55 1021.3
20260506141505 61 87 6.0 8.0 0.00 0.00 0.00 56 1021.3
20260506141005 61 79 7.0 8.0 0.00 0.00 0.00 56 1021.3
20260506140505 61 77 7.0 9.0 0.00 0.00 0.00 55 1021.3
20260506140007 61 82 7.0 9.0 0.00 0.00 0.00 58 1021.3
20260506135505 61 91 6.0 7.0 0.00 0.00 0.00 58 1021.3
20260506135005 60 92 5.0 6.0 0.00 0.00 0.00 59 1021.3
20260506134505 61 87 6.0 8.0 0.00 0.00 0.00 59 1021.3
20260506134005 60 80 6.0 8.0 0.00 0.00 0.00 58 1021.3
20260506133505 61 80 4.0 8.0 0.00 0.00 0.00 59 1021.3
20260506133005 60 83 4.0 5.0 0.00 0.00 0.00 60 1021.3
20260506132505 60 90 4.0 8.0 0.00 0.00 0.00 60 1021.3
20260506132005 60 97 4.0 8.0 0.00 0.00 0.00 59 1021.3
20260506131505 60 88 4.0 6.0 0.00 0.00 0.00 60 1021.3
20260506131005 60 94 4.0 6.0 0.00 0.00 0.00 62 1021.3
20260506130505 60 92 4.0 6.0 0.00 0.00 0.00 63 1021.3
20260506130007 59 88 5.0 6.0 0.00 0.00 0.00 63 1021.3
20260506125505 59 74 5.0 6.0 0.00 0.00 0.00 64 1021.3
20260506125006 59 55 5.0 8.0 0.00 0.00 0.00 65 1021.3
20260506124505 59 72 5.0 8.0 0.00 0.00 0.00 65 1021.3
20260506124006 59 85 4.0 8.0 0.00 0.00 0.00 65 1021.3
20260506123504 59 86 4.0 8.0 0.00 0.00 0.00 66 1021.3
20260506123005 58 82 5.0 8.0 0.00 0.00 0.00 67 1021.3
20260506122505 58 81 5.0 8.0 0.00 0.00 0.00 67 1021.3
20260506122005 58 79 4.0 6.0 0.00 0.00 0.00 66 1021.3
20260506121505 58 75 4.0 6.0 0.00 0.00 0.00 67 1022.3
20260506121005 58 67 4.0 5.0 0.00 0.00 0.00 67 1022.3
20260506120505 58 76 4.0 7.0 0.00 0.00 0.00 68 1022.3
20260506120007 58 89 4.0 7.0 0.00 0.00 0.00 68 1022.3
20260506115505 58 85 4.0 5.0 0.00 0.00 0.00 67 1022.3
20260506115005 58 78 4.0 6.0 0.00 0.00 0.00 67 1022.3
20260506114505 58 77 4.0 6.0 0.00 0.00 0.00 69 1022.3
20260506114005 58 93 4.0 7.0 0.00 0.00 0.00 71 1022.3
20260506113505 57 91 5.0 7.0 0.00 0.00 0.00 70 1022.3
20260506113005 57 84 5.0 7.0 0.00 0.00 0.00 70 1021.3
20260506112505 57 84 4.0 7.0 0.00 0.00 0.00 71 1021.3
20260506112005 57 92 3.0 4.0 0.00 0.00 0.00 71 1021.3
20260506111505 57 86 3.0 5.0 0.00 0.00 0.00 72 1021.3
20260506111005 57 85 2.0 5.0 0.00 0.00 0.00 73 1021.3
20260506110505 57 127 1.0 2.0 0.00 0.00 0.00 74 1021.3
20260506110007 57 254 2.0 4.0 0.00 0.00 0.00 76 1022.3
20260506105505 56 248 2.0 4.0 0.00 0.00 0.00 76 1022.3
20260506105004 56 262 2.0 3.0 0.00 0.00 0.00 76 1022.3
20260506104505 56 275 1.0 3.0 0.00 0.00 0.00 75 1021.3
20260506104005 56 0 0.0 0.0 0.00 0.00 0.00 75 1021.3
20260506103504 56 292 6.0 6.0 0.00 0.00 0.00 74 1021.3
20260506103005 57 292 6.0 6.0 0.00 0.00 0.00 73 1021.3
20260506102505 57 292 6.0 6.0 0.00 0.00 0.00 73 1021.3
20260506102005 57 292 6.0 6.0 0.00 0.00 0.00 74 1021.3
20260506101505 57 292 6.0 6.0 0.00 0.00 0.00 74 1021.3
20260506101006 57 292 6.0 6.0 0.00 0.00 0.00 74 1021.3
20260506100504 57 292 6.0 6.0 0.00 0.00 0.00 74 1021.3
20260506100008 58 292 5.0 6.0 0.00 0.00 0.00 73 1021.3
20260506095505 58 304 5.0 6.0 0.00 0.00 0.00 73 1021.3
20260506095005 58 309 5.0 6.0 0.00 0.00 0.00 71 1021.3
20260506094505 58 292 5.0 5.0 0.00 0.00 0.00 71 1021.3
20260506094005 59 252 2.0 4.0 0.00 0.00 0.00 69 1021.3
20260506093505 59 252 2.0 4.0 0.00 0.00 0.00 69 1021.3
20260506093004 59 252 2.0 4.0 0.00 0.00 0.00 68 1021.3
20260506092505 60 136 2.0 4.0 0.00 0.00 0.00 65 1021.3
20260506092005 60 93 3.0 4.0 0.00 0.00 0.00 65 1021.3
20260506091505 59 107 3.0 5.0 0.00 0.00 0.00 66 1021.3
20260506091004 59 110 3.0 5.0 0.00 0.00 0.00 66 1021.3
20260506090505 59 99 3.0 5.0 0.00 0.00 0.00 66 1021.3
20260506090007 59 97 3.0 5.0 0.00 0.00 0.00 66 1021.3
20260506085504 59 87 3.0 6.0 0.00 0.00 0.00 65 1021.3
20260506085005 60 92 3.0 6.0 0.00 0.00 0.00 64 1021.3
20260506084505 60 88 4.0 6.0 0.00 0.00 0.00 64 1021.3
20260506084005 60 59 3.0 6.0 0.00 0.00 0.00 65 1021.3
20260506083505 60 44 2.0 3.0 0.00 0.00 0.00 66 1021.3
20260506083004 60 70 1.0 3.0 0.00 0.00 0.00 69 1021.3
20260506082505 60 94 2.0 3.0 0.00 0.00 0.00 68 1021.3
20260506082005 60 89 2.0 3.0 0.00 0.00 0.00 67 1021.3
20260506081504 60 73 2.0 4.0 0.00 0.00 0.00 71 1021.3
20260506081005 58 77 2.0 4.0 0.00 0.00 0.00 74 1021.3
20260506080505 57 86 2.0 4.0 0.00 0.00 0.00 74 1021.3
20260506073505 55 42 3.0 4.0 0.00 0.00 0.00 82 1021.3
20260506073005 54 63 1.0 3.0 0.00 0.00 0.00 84 1021.3
20260506072505 54 68 1.0 3.0 0.00 0.00 0.00 84 1021.3
20260506072005 54 68 1.0 3.0 0.00 0.00 0.00 84 1021.3
20260506071504 54 68 0.0 2.0 0.00 0.00 0.00 84 1021.3
20260506071004 54 68 0.0 2.0 0.00 0.00 0.00 84 1021.3
20260506070504 54 68 0.0 1.0 0.00 0.00 0.00 84 1021.3
20260506062504 53 49 2.0 3.0 0.00 0.00 0.00 88 1021.3
20260506062004 53 49 1.0 3.0 0.00 0.00 0.00 88 1021.3
20260506061504 53 337 0.0 2.0 0.00 0.00 0.00 88 1021.3
20260506061005 53 20 1.0 3.0 0.00 0.00 0.00 88 1021.3
20260506060505 53 12 1.0 3.0 0.00 0.00 0.00 88 1021.3
20260506051005 52 297 1.0 2.0 0.00 0.00 0.00 86 1021.3
20260506050504 52 313 0.0 1.0 0.00 0.00 0.00 86 1021.3
20260506045004 52 6 2.0 3.0 0.00 0.00 0.00 85 1021.3
20260506044505 52 344 2.0 3.0 0.00 0.00 0.00 85 1021.3
20260506044004 52 336 2.0 3.0 0.00 0.00 0.00 85 1021.3
20260506043504 52 333 2.0 2.0 0.00 0.00 0.00 85 1021.3
20260506043004 52 335 1.0 2.0 0.00 0.00 0.00 85 1021.3
20260506042504 52 4 1.0 2.0 0.00 0.00 0.00 85 1021.3
20260506042004 52 9 1.0 2.0 0.00 0.00 0.00 85 1021.3
20260506041504 52 350 1.0 3.0 0.00 0.00 0.00 85 1021.3
20260506041005 52 336 1.0 3.0 0.00 0.00 0.00 84 1021.3
20260506040504 52 330 1.0 2.0 0.00 0.00 0.00 84 1021.3
20260506040006 52 3 2.0 3.0 0.00 0.00 0.00 84 1021.3
20260506035505 52 19 2.0 3.0 0.00 0.00 0.00 84 1021.3
20260506035004 52 16 2.0 4.0 0.00 0.00 0.00 84 1021.3
20260506034504 52 28 3.0 4.0 0.00 0.00 0.00 85 1021.3
20260506034004 52 45 4.0 7.0 0.00 0.00 0.00 85 1021.3
20260506033504 52 57 4.0 7.0 0.00 0.00 0.00 85 1021.3
20260506033005 52 60 4.0 7.0 0.00 0.00 0.00 85 1021.3
20260506032504 52 45 3.0 6.0 0.00 0.00 0.00 85 1021.3
20260506032004 52 31 2.0 3.0 0.00 0.00 0.00 84 1021.3
20260506031504 53 22 1.0 1.0 0.00 0.00 0.00 84 1021.3
20260506031004 52 22 1.0 1.0 0.00 0.00 0.00 83 1021.3
20260506030504 52 22 1.0 1.0 0.00 0.00 0.00 83 1021.3
20260506030006 53 22 1.0 1.0 0.00 0.00 0.00 83 1021.3
20260506025504 52 22 1.0 1.0 0.00 0.00 0.00 83 1021.3
20260506025004 52 10 1.0 1.0 0.00 0.00 0.00 83 1021.3
20260506024504 52 351 2.0 5.0 0.00 0.00 0.00 83 1021.3
20260506024004 53 339 2.0 5.0 0.00 0.00 0.00 83 1021.3
20260506023504 53 336 2.0 4.0 0.00 0.00 0.00 83 1021.3
20260506023004 53 330 1.0 2.0 0.00 0.00 0.00 83 1021.3
20260506022505 53 327 2.0 3.0 0.00 0.00 0.00 83 1021.3
20260506022004 53 330 1.0 3.0 0.00 0.00 0.00 83 1021.3
20260506021504 53 6 1.0 4.0 0.00 0.00 0.00 83 1021.3
20260506021005 53 350 2.0 4.0 0.00 0.00 0.00 83 1021.3
20260506020504 53 343 2.0 4.0 0.00 0.00 0.00 83 1021.3
20260506020006 53 5 2.0 4.0 0.00 0.00 0.00 83 1021.3
20260506015504 53 10 2.0 4.0 0.00 0.00 0.00 83 1021.3
20260506015004 53 3 2.0 4.0 0.00 0.00 0.00 83 1021.3
20260506014504 53 355 2.0 4.0 0.00 0.00 0.00 83 1021.3
20260506014004 53 345 2.0 3.0 0.00 0.00 0.00 82 1021.3
20260506013504 53 359 2.0 3.0 0.00 0.00 0.00 83 1021.3
20260506013004 53 8 2.0 2.0 0.00 0.00 0.00 83 1021.3
20260506012504 53 349 1.0 2.0 0.00 0.00 0.00 82 1021.3
20260506012005 53 342 2.0 2.0 0.00 0.00 0.00 82 1021.3
20260506011504 53 341 2.0 2.0 0.00 0.00 0.00 82 1021.3
20260506011004 53 344 1.0 2.0 0.00 0.00 0.00 82 1021.3
20260506010504 53 22 0.0 1.0 0.00 0.00 0.00 82 1021.3
20260506010006 53 320 0.0 1.0 0.00 0.00 0.00 82 1022.3
20260506005504 53 317 1.0 2.0 0.00 0.00 0.00 82 1022.3
20260506005004 53 337 1.0 2.0 0.00 0.00 0.00 81 1022.3
20260506004505 53 354 1.0 2.0 0.00 0.00 0.00 81 1022.3
20260506004004 53 19 1.0 3.0 0.00 0.00 0.00 81 1022.3
20260506003504 53 32 1.0 3.0 0.00 0.00 0.00 81 1022.3
20260506003004 53 35 1.0 3.0 0.00 0.00 0.00 81 1022.3
20260506002504 53 21 1.0 3.0 0.00 0.00 0.00 82 1022.3
20260506002004 53 337 0.0 2.0 0.00 0.00 0.00 82 1022.3
20260506001503 53 292 0.0 1.0 0.00 0.00 0.00 82 1022.3
20260506001004 53 274 0.0 2.0 0.00 0.00 0.00 82 1022.3
20260506000504 53 289 1.0 2.0 0.00 0.00 0.00 82 1022.3
20260506000006 53 340 1.0 3.0 0.00 0.00 0.00 81 1022.3
20260505235503 53 316 1.0 3.0 0.00 0.00 0.00 82 1022.3
20260505235004 53 300 0.0 2.0 0.00 0.00 0.00 82 1022.3
20260505234504 53 305 0.0 2.0 0.00 0.00 0.00 82 1022.3
20260505234004 53 314 0.0 2.0 0.00 0.00 0.00 82 1022.3
20260505233504 53 303 0.0 2.0 0.00 0.00 0.00 82 1022.3
20260505233004 53 292 1.0 2.0 0.00 0.00 0.00 82 1022.3
20260505232503 53 286 2.0 3.0 0.00 0.00 0.00 81 1022.3
20260505232004 53 285 2.0 3.0 0.00 0.00 0.00 81 1022.3
20260505231504 53 308 2.0 4.0 0.00 0.00 0.00 81 1022.3
20260505231004 53 314 2.0 4.0 0.00 0.00 0.00 80 1022.3
20260505230504 53 308 1.0 3.0 0.00 0.00 0.00 80 1022.3
20260505230009 53 309 1.0 3.0 0.00 0.00 0.00 79 1022.3
20260505225504 53 323 1.0 3.0 0.00 0.00 0.00 79 1022.3
20260505225003 54 322 2.0 4.0 0.00 0.00 0.00 79 1022.3
20260505224504 54 318 1.0 4.0 0.00 0.00 0.00 79 1022.3
20260505224004 54 328 2.0 4.0 0.00 0.00 0.00 79 1022.3
20260505223504 53 321 3.0 4.0 0.00 0.00 0.00 79 1022.3
20260505223005 53 331 2.0 3.0 0.00 0.00 0.00 79 1022.3
20260505222504 53 350 3.0 6.0 0.00 0.00 0.00 79 1022.3
20260505222004 53 333 3.0 6.0 0.00 0.00 0.00 79 1022.3
20260505221504 53 323 2.0 6.0 0.00 0.00 0.00 79 1022.3
20260505221004 53 324 2.0 4.0 0.00 0.00 0.00 78 1022.3
20260505220504 53 315 2.0 3.0 0.00 0.00 0.00 78 1022.3
20260505220005 53 310 2.0 3.0 0.00 0.00 0.00 78 1022.3
20260505215504 53 313 1.0 3.0 0.00 0.00 0.00 77 1022.3
20260505215004 53 337 1.0 3.0 0.00 0.00 0.00 77 1022.3
20260505214504 53 317 2.0 4.0 0.00 0.00 0.00 76 1022.3
20260505214004 53 307 2.0 4.0 0.00 0.00 0.00 76 1022.3
20260505213504 53 295 2.0 4.0 0.00 0.00 0.00 76 1022.3
20260505213004 54 288 2.0 3.0 0.00 0.00 0.00 75 1022.3
20260505212504 54 301 2.0 4.0 0.00 0.00 0.00 75 1022.3
20260505212004 54 309 2.0 4.0 0.00 0.00 0.00 75 1022.3
20260505211504 54 301 2.0 4.0 0.00 0.00 0.00 74 1022.3
20260505211004 54 317 2.0 4.0 0.00 0.00 0.00 74 1022.3
20260505210504 54 330 3.0 4.0 0.00 0.00 0.00 74 1022.3
20260505210006 54 337 3.0 4.0 0.00 0.00 0.00 72 1022.3
20260505205504 54 336 3.0 4.0 0.00 0.00 0.00 71 1022.3
20260505205005 54 331 3.0 4.0 0.00 0.00 0.00 71 1022.3
20260505204504 54 350 3.0 6.0 0.00 0.00 0.00 71 1022.3
20260505204003 54 354 3.0 6.0 0.00 0.00 0.00 70 1022.3
20260505203504 54 338 2.0 3.0 0.00 0.00 0.00 70 1022.3
20260505203004 54 334 3.0 6.0 0.00 0.00 0.00 70 1022.3
20260505202504 54 337 4.0 6.0 0.00 0.00 0.00 69 1022.3
20260505202005 55 330 3.0 6.0 0.00 0.00 0.00 69 1022.3
20260505201504 55 327 3.0 3.0 0.00 0.00 0.00 69 1022.3
20260505201004 56 314 7.0 7.0 0.00 0.00 0.00 66 1022.3
20260505200504 56 314 7.0 7.0 0.00 0.00 0.00 66 1022.3
20260505200006 56 314 7.0 7.0 0.00 0.00 0.00 66 1022.3
20260505195504 56 314 7.0 7.0 0.00 0.00 0.00 66 1022.3
20260505195004 56 314 7.0 7.0 0.00 0.00 0.00 66 1022.3
20260505194504 56 314 7.0 7.0 0.00 0.00 0.00 66 1022.3
20260505194004 56 314 7.0 7.0 0.00 0.00 0.00 66 1022.3
20260505193504 56 314 7.0 7.0 0.00 0.00 0.00 66 1022.3
20260505193004 56 314 7.0 7.0 0.00 0.00 0.00 66 1022.3
20260505192504 56 314 7.0 7.0 0.00 0.00 0.00 66 1022.3
20260505192004 56 314 7.0 7.0 0.00 0.00 0.00 66 1022.3
20260505191504 56 314 7.0 7.0 0.00 0.00 0.00 66 1022.3
20260505191005 56 314 7.0 7.0 0.00 0.00 0.00 66 1022.3
20260505190504 57 356 6.0 8.0 0.00 0.00 0.00 65 1022.3
20260505190006 57 359 6.0 8.0 0.00 0.00 0.00 65 1022.3
20260505185504 57 358 7.0 10.0 0.00 0.00 0.00 64 1022.3
20260505185005 57 3 7.0 10.0 0.00 0.00 0.00 63 1022.3
20260505184504 58 6 5.0 10.0 0.00 0.00 0.00 63 1022.3
20260505184006 58 358 5.0 10.0 0.00 0.00 0.00 63 1022.3
20260505183505 58 350 6.0 8.0 0.00 0.00 0.00 63 1022.3
20260505183006 58 6 7.0 9.0 0.00 0.00 0.00 62 1022.3
20260505182505 58 5 7.0 9.0 0.00 0.00 0.00 62 1022.3
20260505182006 58 343 7.0 9.0 0.00 0.00 0.00 61 1022.3
20260505181506 58 326 6.0 8.0 0.00 0.00 0.00 62 1022.3
20260505181007 59 337 6.0 10.0 0.00 0.00 0.00 62 1022.3
20260505180506 59 335 7.0 10.0 0.00 0.00 0.00 61 1022.3
20260505180008 59 345 8.0 11.0 0.00 0.00 0.00 60 1022.3
20260505175506 59 351 8.0 11.0 0.00 0.00 0.00 58 1022.3
20260505175005 59 344 7.0 13.0 0.00 0.00 0.00 58 1022.3
20260505174506 60 331 9.0 13.0 0.00 0.00 0.00 57 1022.3
20260505174006 60 326 9.0 11.0 0.00 0.00 0.00 56 1022.3
20260505173506 60 325 8.0 11.0 0.00 0.00 0.00 56 1022.3
20260505173005 60 335 8.0 11.0 0.00 0.00 0.00 55 1022.3
20260505172505 60 352 8.0 13.0 0.00 0.00 0.00 56 1022.3
20260505172006 61 1 7.0 13.0 0.00 0.00 0.00 56 1022.3
20260505171505 61 344 8.0 13.0 0.00 0.00 0.00 55 1022.3
20260505171006 61 328 7.0 9.0 0.00 0.00 0.00 55 1022.3
20260505170506 61 1 4.0 6.0 0.00 0.00 0.00 56 1022.3
20260505170008 61 1 4.0 6.0 0.00 0.00 0.00 56 1022.3
20260505165506 61 1 4.0 6.0 0.00 0.00 0.00 57 1022.3
20260505165006 61 1 4.0 6.0 0.00 0.00 0.00 57 1022.3
20260505164505 61 1 4.0 6.0 0.00 0.00 0.00 57 1022.3
20260505164005 61 1 4.0 6.0 0.00 0.00 0.00 57 1022.3
20260505163506 61 328 7.0 13.0 0.00 0.00 0.00 60 1022.3
20260505163008 61 321 7.0 13.0 0.00 0.00 0.00 60 1022.3
20260505162505 61 302 7.0 10.0 0.00 0.00 0.00 63 1022.3
20260505162005 61 306 9.0 10.0 0.00 0.00 0.00 63 1022.3
20260505161505 61 307 7.0 9.0 0.00 0.00 0.00 63 1022.3
20260505161005 62 294 8.0 9.0 0.00 0.00 0.00 67 1022.3
20260505160505 61 287 8.0 9.0 0.00 0.00 0.00 67 1022.3